Wetbulb
53.85 53.93 53.48 52.90 51.65 50.31 51.09 50.84 47.22 53.64 55.43 49.71 48.42 44.17 41.79 39.76 43.55 45.53 43.42 43.60 42.35 41.09 41.07 39.64 39.46 38.81 41.31 45.01 44.72 41.07 44.39 41.86 38.61 40.94 47.05 51.18 49.72 48.65 49.57 45.24 44.77 47.01 47.21 47.38
53.99 53.80 53.41 52.41 51.48 50.58 51.61 48.32 48.57 53.91 54.13 44.48 42.83 43.13 41.90 42.73 42.29 42.81 42.08 41.06 42.11 42.65 40.32 36.87 40.09 40.93 44.16 45.32 43.57 41.68 44.42 39.34 35.19 38.24 42.31 45.90 45.04 48.51 50.53 49.70 50.44 47.29 44.64 46.80
53.52 53.91 53.51 52.61 51.73 50.87 51.63 49.14 46.53 48.64 49.00 47.53 42.73 40.91 39.84 39.70 43.63 42.96 43.54 42.80 43.69 41.71 40.29 42.29 38.83 39.41 42.67 44.90 44.40 44.57 44.02 40.00 37.61 35.59 38.82 41.50 40.79 45.42 47.43 48.11 45.33 46.90 48.39 50.71
53.75 54.16 53.80 52.86 52.24 51.21 51.02 49.03 44.29 44.74 41.71 42.29 43.21 42.99 41.27 38.75 37.98 42.60 43.67 40.93 40.47 39.12 35.58 36.96 36.94 39.74 40.93 43.16 44.36 44.28 43.79 37.44 39.51 39.83 40.03 39.97 39.81 40.64 42.81 43.30 46.97 45.33 49.28 50.31
53.81 53.91 53.82 53.45 52.41 50.91 52.60 48.24 45.55 47.27 41.21 42.32 39.83 40.51 38.12 37.24 37.92 37.48 37.38 38.22 39.78 40.60 38.05 38.63 37.07 39.90 41.04 39.93 42.69 42.76 43.89 37.07 39.01 36.57 39.26 39.15 37.61 40.45 42.08 42.86 45.42 46.51 48.43 49.81
53.55 53.59 54.09 53.53 52.45 51.15 51.09 50.63 50.00 47.42 41.06 40.90 40.15 39.04 38.33 38.08 40.07 40.56 41.04 40.00 38.71 37.13 38.59 42.45 42.44 44.71 44.28 43.30 40.62 40.11 39.31 38.42 36.71 33.37 38.52 38.74 35.97 41.04 43.34 44.51 46.72 47.23 45.51 51.16
53.56 53.50 53.83 54.11 53.23 51.81 53.25 51.42 51.07 44.76 39.49 41.80 40.57 40.31 41.30 39.37 39.43 38.45 40.96 40.38 38.09 40.92 47.61 46.97 46.15 44.83 44.21 43.53 42.16 41.93 37.28 38.00 37.37 33.87 36.95 28.81 39.92 45.87 47.27 45.99 47.77 49.86 50.80 52.64
53.77 53.77 53.95 53.91 53.21 52.01 54.36 54.11 49.12 45.24 41.15 42.98 41.87 40.09 40.14 40.37 42.83 40.56 40.45 42.26 45.73 48.36 44.45 38.77 36.31 36.85 37.05 38.97 41.63 41.84 40.53 37.70 34.20 31.63 33.22 37.28 41.23 43.56 43.45 41.78 45.57 51.20 51.31 53.25
53.66 53.79 53.83 54.06 53.25 52.70 55.46 53.46 53.39 47.84 45.32 42.64 44.23 41.14 41.06 38.77 38.65 42.18 41.12 46.11 47.95 45.92 40.23 37.26 30.88 31.06 32.01 31.97 34.30 42.05 40.52 40.89 35.28 33.92 28.14 28.59 38.51 42.26 45.51 47.48 43.37 50.96 50.87 52.32
53.50 53.75 53.69 54.09 54.07 53.22 54.45 52.43 54.29 50.98 46.67 48.17 46.73 42.29 40.20 44.11 41.63 39.29 41.81 42.41 41.64 42.69 37.31 33.63 33.36 33.39 34.81 30.81 31.09 32.79 34.13 34.03 32.11 32.97 30.96 36.02 43.06 42.98 44.79 37.64 42.24 50.13 51.23 52.02
53.60 53.96 53.67 54.11 54.45 53.66 54.45 52.36 55.24 51.19 48.33 49.41 49.10 47.93 44.82 45.11 43.81 38.47 43.48 42.27 41.14 38.20 34.88 34.78 34.85 33.72 34.27 34.48 36.41 34.90 33.91 33.36 33.09 34.36 31.65 29.12 44.78 43.60 37.06 41.55 47.04 48.18 49.08 51.35
53.83 53.98 53.79 54.07 54.77 53.86 53.23 51.89 53.17 53.58 48.20 50.00 52.62 51.64 51.39 49.13 47.61 43.79 45.57 42.66 40.84 39.57 35.69 36.73 36.21 33.90 35.49 34.43 32.06 39.03 33.14 37.48 35.13 36.83 37.63 43.87 44.12 43.15 45.11 45.66 46.10 47.28 47.44 50.60
53.48 53.81 53.68 54.29 54.80 54.42 53.58 55.42 54.38 51.61 49.60 50.69 50.60 50.68 52.55 53.94 52.16 53.47 43.76 44.82 45.09 42.43 43.16 38.44 37.45 33.36 35.65 33.12 33.87 33.71 34.73 38.43 37.09 35.47 39.93 40.86 43.19 45.43 47.78 48.50 48.12 49.58 49.38 50.21
53.68 53.50 53.99 54.44 54.80 54.09 53.73 54.80 54.48 52.82 50.50 47.14 48.84 53.23 52.30 53.15 53.27 51.31 50.54 49.63 50.26 47.43 44.35 40.17 37.63 35.23 38.78 34.60 33.89 33.53 34.19 36.14 33.89 34.70 38.58 41.01 42.86 44.61 47.06 48.15 50.19 49.49 50.59 50.64
53.64 53.66 53.79 54.42 54.74 53.52 54.24 56.35 56.07 55.72 49.93 46.80 49.18 51.79 52.71 52.88 50.71 49.98 50.65 50.16 48.86 48.90 42.45 39.50 37.22 39.33 37.62 39.22 38.92 34.61 39.08 37.63 35.16 34.05 40.31 40.78 41.07 44.24 45.97 45.49 45.99 46.64 46.76 47.24
53.04 53.15 54.07 54.29 54.40 52.13 53.44 50.72 54.93 55.93 54.62 48.46 47.05 52.67 50.32 51.85 51.99 48.22 49.16 49.48 50.35 49.18 45.75 43.46 42.73 42.69 40.27 35.39 34.27 37.71 41.94 42.80 41.82 39.21 44.09 42.58 43.86 44.71 45.33 44.70 45.94 46.52 45.98 46.39
52.61 52.36 53.02 53.74 53.62 54.82 52.89 51.50 52.93 52.14 55.35 46.39 46.75 49.41 52.78 49.71 50.05 46.64 48.66 50.34 50.92 49.12 46.99 43.77 43.06 42.67 41.71 37.76 33.18 39.35 42.77 43.22 42.90 44.16 43.36 40.79 42.10 41.53 44.62 45.08 46.07 46.75 46.39 46.47
52.15 52.79 51.94 52.42 53.05 52.55 52.70 54.99 51.21 53.28 50.34 50.27 44.46 48.85 49.64 52.53 49.73 46.88 45.91 47.92 50.26 48.51 47.60 46.81 43.61 45.40 42.62 35.17 41.66 43.38 44.50 44.40 43.66 43.29 43.92 42.63 43.22 43.60 43.60 45.27 45.80 44.37 44.13 44.76
52.45 52.73 52.61 54.22 52.87 52.17 53.05 52.29 51.59 54.07 49.20 47.28 47.84 46.37 44.28 53.16 50.48 49.70 47.25 47.56 44.94 49.98 46.81 45.31 45.84 36.80 33.71 41.08 42.79 44.05 45.29 44.81 44.35 45.08 44.45 43.01 41.34 41.72 42.65 42.71 44.05 44.10 43.52 44.18
52.58 53.34 53.27 50.88 53.87 53.02 52.86 49.61 47.83 48.05 48.39 48.10 44.08 50.80 46.48 52.43 47.66 47.69 45.80 44.12 42.60 39.53 44.39 47.98 43.58 41.56 44.03 45.38 46.34 46.94 47.12 47.01 47.58 44.27 43.02 42.87 41.52 40.51 41.66 41.84 43.17 43.13 43.50 44.48
54.94 54.49 55.17 55.15 52.58 52.11 49.53 46.66 46.78 48.71 44.94 47.45 47.16 47.81 47.31 53.32 45.92 48.54 51.60 43.34 44.99 39.54 42.48 42.16 41.64 40.08 42.89 45.79 46.78 47.85 48.86 48.86 48.20 47.98 47.38 46.89 45.83 43.79 42.12 42.81 43.25 43.26 43.07 43.00
54.59 55.24 55.23 56.03 52.19 50.36 48.60 48.91 48.77 47.39 45.73 51.43 48.95 50.30 50.30 51.59 53.61 48.97 50.24 45.78 45.53 36.76 46.16 42.51 36.58 43.21 45.21 45.91 46.25 47.38 48.17 48.07 48.01 48.46 47.85 47.53 47.36 47.29 46.63 45.05 44.05 44.32 44.61 44.20
56.99 55.03 53.20 53.36 53.14 42.26 43.50 41.94 45.13 46.52 49.62 50.05 49.89 47.77 51.63 49.43 51.01 49.65 48.45 41.20 42.49 47.90 42.57 37.00 42.34 45.37 48.01 48.09 47.75 47.32 48.25 47.88 47.75 47.70 48.30 48.57 47.93 48.25 47.82 46.97 46.89 46.10 45.54 46.26
53.69 52.36 41.33 48.59 46.58 48.14 48.43 48.04 48.42 51.04 50.77 49.80 49.16 49.23 50.46 50.98 47.85 48.63 41.74 45.04 45.24 39.25 35.17 35.44 43.66 46.24 47.66 49.08 49.11 48.09 47.28 47.04 47.04 47.08 47.99 47.90 47.69 47.38 47.71 47.28 47.97 47.16 46.64 46.62
52.49 53.21 43.45 48.39 52.18 52.32 52.85 52.57 51.69 52.92 53.63 50.66 49.51 49.84 49.89 45.76 44.47 45.45 43.79 38.90 36.05 37.61 38.61 42.62 45.99 47.54 48.30 48.03 48.35 48.59 47.93 47.43 47.50 47.39 47.50 47.26 47.31 46.89 46.23 47.27 47.11 47.85 48.01 47.57
53.97 53.22 51.16 52.69 50.93 50.19 51.53 51.76 51.37 54.64 53.60 52.44 50.38 47.03 44.00 43.34 44.14 40.35 37.81 35.18 35.36 39.50 42.99 45.86 47.39 48.45 48.48 47.86 47.86 48.15 49.05 48.30 49.57 47.63 47.72 47.90 47.50 46.39 46.57 47.41 47.10 47.13 47.21 46.80
52.82 52.41 55.40 54.10 53.01 52.17 52.37 52.56 52.04 54.19 50.59 47.26 46.84 40.93 41.00 45.34 40.22 37.27 40.93 37.06 39.86 42.79 45.64 46.80 47.71 48.09 48.52 48.63 48.26 48.51 49.47 49.60 49.49 48.07 47.53 47.27 48.32 47.37 46.71 45.35 46.77 47.32 47.73 47.71
MSLP
1021.72 1021.07 1020.48 1019.83 1019.06 1017.87 1016.11 1014.58 1012.49 1013.91 1012.94 1011.70 1012.27 1012.58 1014.32 1015.28 1013.91 1013.92 1013.57 1013.36 1012.69 1012.24 1011.95 1011.73 1011.50 1011.24 1011.26 1012.24 1012.06 1011.43 1011.08 1009.80 1007.84 1006.39 1004.99 1004.60 1003.73 1002.39 1001.59 1000.02 999.22 998.40 996.80 995.08
1021.70 1021.12 1020.46 1019.90 1019.37 1018.87 1017.24 1014.97 1014.46 1014.38 1012.34 1012.36 1013.42 1014.67 1014.92 1015.13 1014.66 1014.42 1014.15 1013.74 1013.67 1013.47 1012.94 1012.68 1012.17 1012.12 1012.37 1012.96 1012.68 1012.04 1011.85 1010.46 1008.96 1007.08 1006.54 1005.45 1004.61 1003.59 1002.32 1001.07 999.86 997.80 997.28 996.26
1021.60 1021.06 1020.49 1019.95 1019.45 1019.01 1018.02 1015.64 1014.03 1014.65 1014.70 1015.34 1015.47 1015.53 1015.72 1015.60 1015.81 1015.43 1015.50 1014.91 1014.71 1014.38 1013.99 1013.72 1013.28 1012.91 1012.94 1013.53 1013.31 1013.67 1013.45 1011.46 1010.14 1007.63 1007.08 1007.02 1006.29 1005.07 1004.16 1002.94 1000.72 999.00 997.18 996.67
1021.53 1021.02 1020.51 1020.03 1019.53 1019.00 1018.34 1016.51 1016.52 1017.03 1015.89 1016.33 1016.44 1016.32 1016.70 1016.56 1016.53 1016.52 1016.37 1015.61 1015.70 1015.55 1015.18 1014.72 1014.12 1013.87 1013.71 1013.77 1013.84 1014.03 1013.53 1011.77 1010.88 1009.90 1009.11 1008.56 1007.60 1006.68 1005.90 1004.58 1002.72 1000.31 998.62 997.47
1021.46 1021.06 1020.60 1020.20 1019.64 1018.89 1017.53 1016.94 1017.49 1017.70 1018.07 1018.00 1018.03 1018.13 1018.14 1017.99 1017.94 1018.14 1017.50 1017.14 1017.07 1017.02 1016.62 1015.62 1015.06 1014.49 1014.02 1013.68 1013.56 1013.59 1013.98 1012.71 1011.85 1010.64 1009.63 1008.49 1007.14 1006.26 1005.72 1005.01 1004.12 1002.69 1000.89 998.71
1021.43 1021.13 1020.82 1020.41 1019.90 1019.19 1017.94 1018.79 1019.06 1018.41 1018.68 1018.33 1018.41 1018.66 1018.86 1018.76 1018.80 1018.52 1018.31 1018.25 1018.04 1017.57 1017.26 1016.57 1015.92 1015.25 1014.66 1014.65 1014.34 1014.50 1014.24 1013.38 1012.06 1010.33 1009.30 1008.05 1006.50 1005.16 1004.70 1004.24 1004.10 1003.21 1001.32 1000.40
1021.44 1021.12 1020.94 1020.61 1020.34 1020.07 1019.20 1019.38 1019.22 1018.87 1018.47 1018.30 1018.72 1018.89 1018.72 1018.62 1018.64 1018.38 1018.04 1018.22 1017.89 1017.50 1016.76 1016.36 1015.59 1014.66 1014.28 1014.22 1014.22 1014.73 1014.79 1014.24 1013.13 1011.17 1009.83 1007.74 1005.35 1004.31 1003.41 1003.40 1003.51 1003.00 1002.46 1001.42
1021.43 1021.12 1020.94 1020.78 1020.64 1020.66 1019.79 1020.00 1019.82 1019.65 1018.86 1018.66 1018.50 1018.95 1018.75 1018.65 1018.24 1018.02 1017.91 1017.56 1017.36 1017.04 1016.82 1016.19 1014.87 1013.55 1013.53 1013.16 1013.29 1013.54 1014.69 1015.13 1013.59 1011.81 1009.62 1007.83 1006.72 1008.22 1007.86 1006.26 1003.62 1003.62 1003.56 1002.68
1021.38 1021.07 1020.92 1020.82 1020.83 1020.90 1020.24 1020.44 1020.61 1020.31 1019.36 1018.61 1018.92 1018.82 1019.07 1018.69 1018.41 1017.15 1017.48 1017.01 1017.06 1017.14 1016.92 1016.75 1015.69 1014.34 1014.08 1013.41 1012.92 1012.65 1013.75 1014.74 1015.08 1012.74 1011.66 1009.86 1009.94 1010.46 1010.01 1008.27 1005.84 1005.43 1005.32 1004.16
1021.29 1021.06 1020.86 1020.84 1020.85 1021.01 1020.44 1020.71 1020.86 1020.08 1019.14 1018.70 1018.92 1018.78 1019.14 1018.64 1018.56 1018.30 1017.64 1017.22 1017.65 1018.31 1018.02 1017.35 1016.31 1015.61 1015.72 1014.84 1013.91 1013.66 1014.70 1015.26 1014.99 1014.06 1012.88 1011.26 1010.90 1011.50 1011.20 1009.92 1008.27 1007.25 1006.46 1005.64
1021.23 1021.00 1020.85 1020.83 1020.80 1020.96 1020.57 1021.06 1020.99 1020.80 1019.61 1018.49 1018.58 1018.68 1018.67 1018.43 1018.56 1018.45 1017.66 1017.10 1017.81 1018.43 1018.36 1017.86 1017.14 1016.81 1016.59 1016.01 1014.91 1014.61 1014.45 1014.77 1014.45 1014.24 1013.14 1012.41 1012.48 1012.25 1012.58 1011.47 1010.24 1009.30 1008.42 1007.12
1021.19 1020.98 1020.78 1020.78 1020.83 1020.97 1020.83 1020.62 1021.45 1021.55 1020.86 1018.71 1018.68 1018.51 1018.59 1018.76 1018.82 1018.94 1018.00 1017.79 1018.12 1018.88 1019.01 1018.63 1018.29 1017.69 1017.22 1016.53 1015.94 1015.69 1015.39 1014.90 1014.78 1014.16 1013.00 1013.24 1013.31 1013.22 1012.76 1012.21 1011.27 1010.26 1009.68 1008.74
1021.13 1021.00 1020.73 1020.77 1020.86 1021.08 1020.94 1020.28 1020.91 1020.96 1019.53 1017.99 1017.58 1017.25 1018.06 1018.20 1018.36 1018.65 1018.44 1017.24 1017.80 1018.60 1019.30 1019.10 1018.71 1018.18 1018.14 1017.41 1017.27 1017.07 1016.73 1016.41 1015.78 1015.68 1014.19 1014.10 1013.83 1013.40 1012.61 1012.13 1011.41 1010.74 1010.30 1009.69
1021.12 1021.04 1020.94 1020.95 1021.08 1021.25 1021.05 1020.00 1020.24 1020.14 1019.16 1017.58 1016.78 1017.56 1017.44 1017.94 1017.99 1018.25 1018.36 1017.85 1017.75 1018.14 1018.40 1018.42 1018.61 1018.60 1018.60 1018.20 1018.11 1017.68 1017.36 1016.88 1016.26 1015.81 1015.17 1014.70 1014.32 1013.65 1012.92 1011.99 1011.38 1010.84 1010.57 1010.12
1021.04 1021.02 1020.99 1020.98 1021.09 1021.22 1020.86 1020.11 1020.02 1020.04 1019.64 1017.66 1016.43 1016.73 1017.06 1017.46 1017.98 1017.95 1017.87 1017.50 1017.12 1016.80 1017.28 1018.13 1018.46 1018.75 1018.74 1017.80 1017.66 1017.76 1017.42 1016.89 1016.37 1016.04 1015.54 1015.03 1014.92 1014.38 1013.54 1012.60 1012.19 1011.64 1011.48 1010.84
1020.88 1020.86 1020.86 1020.85 1020.98 1021.17 1020.56 1019.69 1019.73 1019.83 1019.70 1018.58 1016.20 1016.72 1016.93 1016.96 1017.39 1017.99 1017.69 1017.34 1016.89 1016.64 1016.56 1017.54 1018.33 1018.69 1018.72 1018.23 1018.10 1018.40 1017.60 1017.28 1016.91 1016.25 1015.57 1015.50 1015.12 1014.71 1013.96 1013.07 1012.72 1011.99 1012.04 1011.46
1020.84 1020.87 1020.86 1020.83 1020.98 1020.57 1020.10 1019.82 1019.78 1020.26 1019.86 1018.94 1016.59 1015.52 1016.62 1017.15 1017.27 1017.95 1017.48 1017.09 1016.67 1016.39 1017.01 1017.44 1017.88 1018.04 1018.33 1018.10 1017.73 1018.04 1017.34 1017.07 1016.77 1016.50 1015.98 1015.80 1015.51 1015.07 1014.28 1013.30 1012.80 1012.56 1012.06 1011.80
1020.88 1020.86 1020.94 1020.96 1021.08 1020.92 1019.90 1019.62 1020.46 1020.24 1019.48 1018.72 1017.40 1015.12 1015.63 1016.61 1016.33 1016.99 1017.93 1016.82 1016.02 1016.34 1016.64 1016.83 1017.13 1017.36 1017.79 1017.69 1016.90 1016.66 1016.64 1016.34 1016.05 1016.00 1015.91 1016.09 1015.87 1015.19 1014.45 1013.71 1012.95 1012.37 1012.55 1012.53
1020.64 1020.73 1020.87 1020.42 1020.42 1019.60 1019.57 1020.45 1020.63 1020.26 1020.28 1018.35 1017.33 1015.61 1014.65 1015.80 1015.84 1016.32 1017.21 1016.76 1015.84 1016.20 1015.94 1015.78 1016.05 1017.13 1017.06 1016.63 1016.13 1015.78 1015.76 1015.69 1015.33 1015.29 1015.39 1015.40 1015.34 1014.89 1014.45 1013.94 1013.33 1013.16 1012.99 1012.79
1020.53 1020.54 1019.89 1018.95 1019.24 1020.18 1020.39 1020.46 1019.72 1019.54 1019.22 1018.61 1017.44 1015.87 1014.82 1015.02 1015.28 1015.35 1016.00 1016.62 1015.78 1015.70 1015.60 1015.53 1015.52 1015.73 1015.76 1015.74 1015.56 1015.46 1015.34 1015.34 1015.22 1015.02 1015.00 1015.03 1014.99 1015.18 1014.72 1014.58 1014.09 1013.84 1013.66 1013.46
1019.78 1018.90 1018.17 1018.98 1020.00 1019.68 1019.22 1018.38 1017.93 1017.62 1017.37 1017.10 1016.36 1015.85 1014.50 1014.29 1014.53 1014.34 1014.52 1015.50 1015.24 1015.27 1015.32 1015.14 1014.98 1015.13 1015.18 1015.38 1015.20 1015.24 1015.03 1015.06 1015.16 1015.16 1015.13 1015.09 1015.11 1015.12 1015.15 1014.84 1015.02 1014.86 1014.55 1014.28
1019.19 1019.06 1018.82 1018.64 1018.43 1017.91 1016.97 1015.54 1015.74 1015.63 1014.40 1014.15 1014.26 1014.04 1014.76 1014.47 1014.63 1013.98 1014.14 1013.98 1014.42 1013.95 1014.76 1014.27 1014.91 1014.55 1015.12 1015.12 1015.05 1014.90 1014.87 1014.85 1014.66 1014.86 1014.92 1014.98 1015.03 1014.96 1014.72 1014.90 1014.87 1014.78 1014.91 1014.60
1018.61 1018.50 1017.42 1016.77 1016.13 1015.43 1014.15 1013.30 1012.98 1012.46 1012.51 1012.47 1012.75 1013.01 1013.69 1014.92 1014.64 1014.04 1013.70 1013.24 1013.16 1014.06 1013.71 1014.63 1013.96 1014.43 1014.62 1014.80 1014.88 1014.71 1014.57 1014.51 1014.52 1014.55 1014.55 1014.49 1014.59 1014.65 1014.66 1014.51 1014.76 1014.71 1014.73 1014.57
1017.30 1016.40 1015.86 1014.77 1013.68 1013.12 1012.35 1012.10 1011.79 1011.69 1011.96 1011.90 1012.33 1012.41 1013.12 1013.56 1013.82 1013.00 1012.86 1013.41 1013.68 1013.35 1013.91 1014.05 1013.44 1014.28 1014.44 1014.60 1014.71 1014.60 1014.40 1014.39 1014.22 1014.21 1014.18 1014.30 1014.24 1014.26 1014.42 1014.39 1013.99 1014.08 1014.25 1014.46
1016.24 1015.38 1014.14 1012.90 1012.05 1012.12 1011.68 1011.64 1011.55 1011.12 1011.74 1011.73 1011.71 1012.15 1012.53 1012.44 1012.77 1012.84 1013.18 1013.63 1013.77 1014.04 1013.56 1013.49 1013.80 1014.66 1014.78 1014.63 1014.62 1014.42 1014.22 1014.15 1014.15 1014.25 1014.30 1014.40 1014.40 1014.41 1014.45 1014.63 1014.72 1014.79 1014.54 1014.56
1015.52 1014.49 1012.90 1011.70 1011.61 1011.23 1011.03 1011.17 1011.04 1011.20 1011.34 1011.81 1011.86 1011.71 1012.26 1012.22 1012.75 1013.14 1013.47 1014.29 1014.42 1013.91 1014.11 1014.08 1014.48 1014.99 1014.90 1014.88 1014.76 1014.72 1014.56 1014.42 1014.27 1014.38 1014.51 1014.33 1014.52 1014.63 1014.66 1014.57 1014.52 1014.39 1014.56 1014.59
1014.12 1012.56 1011.79 1011.59 1011.51 1011.30 1011.32 1011.47 1011.54 1011.99 1011.91 1011.34 1012.04 1012.34 1012.25 1013.10 1013.65 1014.80 1015.12 1015.80 1015.50 1014.89 1014.56 1014.68 1015.15 1015.28 1015.18 1015.00 1014.87 1014.75 1014.58 1014.57 1014.44 1014.58 1014.79 1014.81 1014.73 1014.82 1014.80 1014.68 1014.72 1014.59 1014.49 1014.41
Wind_Speed
17 17 17 17 19 24 8 4 1 12 9 0 2 5 5 1 4 3 4 6 9 11 9 9 8 7 4 4 3 7 2 8 13 17 14 8 14 15 28 17 27 21 17 14
16 17 17 15 15 13 8 4 4 8 7 4 6 5 5 2 4 4 3 4 3 2 8 6 7 9 1 5 8 4 4 7 10 16 19 19 17 16 20 19 23 25 20 18
17 16 15 14 13 12 7 4 0 5 8 7 9 2 5 3 3 4 6 8 7 8 10 10 6 6 5 7 10 5 3 12 12 14 12 12 5 11 7 17 19 20 20 17
16 15 13 14 13 12 6 5 6 5 6 8 7 4 6 4 5 6 10 4 5 9 6 9 12 13 11 9 7 9 9 14 13 14 15 14 16 18 17 19 18 23 19 21
15 14 12 13 13 16 2 3 2 5 2 3 3 9 7 5 6 3 6 5 8 10 11 10 13 10 11 13 10 13 11 14 11 16 17 18 20 21 20 21 20 20 23 23
13 12 11 10 12 12 4 4 4 2 1 4 4 4 3 5 9 4 8 11 7 10 12 14 10 13 15 12 8 13 12 11 11 15 13 11 16 22 22 22 21 20 24 19
11 11 10 7 7 9 4 5 1 1 4 5 6 5 8 10 7 7 5 6 7 9 8 12 17 20 18 19 15 13 8 11 12 12 11 16 11 16 15 26 20 21 18 23
11 9 8 6 3 3 3 2 2 1 5 7 9 12 9 4 7 5 3 3 6 9 12 11 11 12 13 21 21 19 16 9 8 10 12 15 12 11 12 14 20 8 14 16
10 8 5 4 1 4 1 3 3 0 2 11 8 7 6 5 6 4 2 5 5 6 5 3 5 4 3 3 5 22 17 17 8 11 6 12 8 9 16 10 9 8 9 11
9 7 4 2 3 6 2 3 2 2 3 9 8 6 4 5 4 5 6 7 3 3 2 3 3 2 2 4 5 9 8 6 14 13 10 10 6 7 12 8 4 6 4 4
8 6 2 1 4 9 3 3 1 4 4 5 5 4 6 6 4 4 8 3 3 2 3 3 3 3 1 3 3 9 11 9 9 12 12 15 9 0 4 6 16 9 11 6
7 6 2 2 6 9 5 2 2 1 2 5 2 3 3 3 5 4 6 5 4 1 3 1 3 2 3 4 2 4 6 1 3 5 4 9 5 11 11 11 12 11 9 10
6 6 1 4 8 9 6 1 2 2 4 5 6 3 5 3 2 2 4 5 4 3 1 2 2 3 3 4 4 4 3 4 3 3 2 7 10 8 9 10 9 10 9 9
5 3 2 5 6 7 6 2 4 4 3 4 4 4 3 2 3 1 5 7 1 0 2 2 3 3 5 3 2 2 3 4 2 5 8 8 7 9 9 12 3 5 4 5
4 1 2 4 8 6 6 2 2 2 5 5 3 3 4 6 1 4 2 5 4 1 4 3 4 3 4 4 2 3 8 7 4 2 8 5 6 10 12 11 10 8 8 9
2 0 4 6 7 8 1 5 4 3 3 5 3 4 5 4 3 1 5 4 3 3 4 3 2 2 6 4 4 8 11 10 13 10 7 10 11 10 12 10 8 8 9 9
1 2 3 6 7 7 4 6 5 1 3 3 5 2 4 3 2 2 2 4 1 3 2 3 2 2 3 3 3 10 12 11 12 13 11 10 15 9 13 11 10 12 13 12
2 3 1 3 5 9 6 3 5 5 4 3 4 2 4 5 1 2 1 4 3 3 1 2 3 2 3 2 10 5 5 8 10 12 12 12 12 13 15 15 14 16 15 13
4 4 3 4 5 3 3 7 5 1 3 3 2 4 5 3 1 1 3 4 1 2 1 2 2 2 3 5 10 12 10 9 11 13 13 15 17 17 17 19 21 18 17 16
5 5 5 3 2 11 8 3 3 3 3 2 4 4 4 2 2 4 4 2 1 1 2 3 3 2 3 6 8 8 9 9 9 12 14 15 16 16 18 17 16 18 17 16
5 4 2 5 6 4 3 2 2 1 3 4 5 5 6 3 4 3 2 4 3 1 1 3 2 3 5 5 7 6 8 7 7 6 8 10 11 11 12 14 13 12 15 14
4 3 1 3 4 5 6 2 4 4 3 3 4 3 4 1 3 4 2 2 4 1 4 2 2 3 3 3 5 6 6 6 6 6 7 8 9 10 11 11 12 12 8 11
3 4 4 4 3 3 4 4 4 4 4 3 4 5 3 2 4 4 4 3 2 1 1 1 1 5 0 2 4 5 5 6 6 4 5 7 8 9 10 10 10 11 11 10
4 4 4 5 3 3 5 8 7 5 5 6 6 3 4 5 4 3 4 3 3 1 2 4 4 6 4 3 3 6 6 4 7 7 5 5 8 10 10 10 11 10 11 11
4 3 4 5 3 4 5 5 6 4 3 5 4 4 3 3 4 3 1 3 0 3 3 5 6 5 5 5 5 7 6 5 3 7 7 6 6 7 9 8 9 8 7 10
4 5 6 5 6 6 6 6 6 4 3 2 3 3 3 3 3 4 2 2 3 4 3 5 4 5 5 5 7 6 5 5 2 5 7 6 7 7 8 8 10 9 9 8
4 5 5 7 7 8 6 4 6 3 7 6 4 3 3 3 1 3 4 5 7 4 3 3 4 5 6 6 7 5 4 2 2 4 6 5 4 6 7 8 9 9 8 7
Wind_Direction
342 341 338 339 342 336 311 294 163 1 316 213 15 41 3 319 1 6 305 288 281 283 295 270 257 262 280 77 277 250 235 292 257 251 254 296 303 281 222 232 221 235 265 229
341 339 332 339 345 355 312 20 24 25 326 39 63 87 69 2 338 343 325 277 253 251 264 259 243 265 344 194 238 262 171 233 260 236 233 240 251 248 251 253 249 224 224 229
342 334 335 339 345 345 304 287 183 86 72 59 65 28 40 9 14 320 317 297 273 269 258 247 267 249 202 226 252 80 264 263 258 279 359 353 288 269 288 264 243 244 236 235
338 337 342 339 342 338 286 346 57 349 32 49 26 18 358 358 18 354 321 259 277 304 277 268 253 253 245 215 199 221 252 259 258 265 283 277 267 262 258 261 263 257 240 233
340 345 348 345 343 327 343 16 39 75 107 39 353 31 20 333 350 283 290 273 305 330 281 281 293 315 278 262 243 224 233 259 267 269 270 264 262 256 246 249 251 257 263 272
347 350 354 356 351 322 51 58 79 259 37 34 350 42 324 305 322 235 257 310 298 269 256 271 268 281 276 240 248 248 235 256 247 261 265 275 268 246 241 239 229 233 236 239
345 346 355 1 10 356 24 52 94 121 55 51 8 323 314 1 348 288 248 247 243 234 267 287 267 257 245 243 234 244 249 247 264 265 284 246 257 259 246 226 226 226 248 231
341 347 355 3 34 37 32 64 46 347 61 26 21 356 358 10 330 346 326 320 289 292 289 277 269 246 235 231 231 221 213 233 269 250 248 267 285 24 354 355 224 199 254 248
342 346 355 8 76 151 62 81 54 118 286 31 358 360 316 352 325 336 324 339 300 326 302 271 259 273 270 275 266 210 201 210 233 279 269 254 58 341 340 312 229 175 245 249
341 342 354 3 131 166 284 87 251 299 358 58 19 18 340 331 289 295 292 345 41 11 287 254 263 298 4 229 192 174 181 188 225 232 247 273 47 347 324 231 63 1 311 300
346 348 13 116 165 166 253 85 342 334 0 60 15 31 348 340 12 313 332 253 84 293 267 288 358 294 90 267 214 167 181 196 200 230 243 253 29 11 243 342 315 351 329 352
353 347 348 148 175 170 242 125 120 215 256 354 8 327 317 315 316 307 311 359 28 358 289 300 297 312 311 325 144 336 241 306 284 281 228 2 337 283 268 278 288 308 313 320
352 327 302 163 174 179 264 96 146 240 263 206 224 109 128 239 326 316 290 51 46 92 252 309 301 325 322 358 40 277 236 340 254 354 301 286 300 294 302 273 281 299 294 308
357 351 104 154 172 173 252 261 141 267 295 292 106 151 189 123 63 346 289 311 128 358 261 13 339 331 4 323 291 303 272 270 245 244 278 250 299 346 345 3 41 304 311 327
4 269 219 176 176 188 256 264 200 290 307 319 320 285 133 158 126 315 318 292 274 312 86 6 18 329 320 304 297 13 352 0 350 31 5 10 24 3 1 22 24 16 18 2
12 212 207 199 185 216 271 215 168 200 274 273 264 95 224 202 214 310 306 332 310 346 355 86 22 23 348 356 18 335 356 34 22 3 14 24 7 13 2 15 23 35 27 15
287 249 237 213 201 246 293 3 32 145 240 253 270 198 165 156 286 94 257 252 355 347 55 34 353 359 344 314 14 4 12 36 33 26 5 19 22 3 2 18 22 45 34 22
265 232 348 217 218 268 244 135 173 233 261 261 285 291 180 187 244 181 156 271 208 58 40 342 33 337 14 49 1 55 28 50 48 46 42 46 12 18 13 13 26 39 37 23
238 219 200 213 223 244 56 110 163 321 304 305 278 310 8 186 239 209 142 289 181 114 301 58 23 338 36 354 6 4 18 33 29 56 35 39 34 14 27 15 18 27 27 25
200 218 214 215 100 112 133 166 218 197 180 231 251 334 305 270 171 198 143 273 238 277 12 264 82 4 37 15 18 359 2 8 23 27 33 31 35 28 18 29 14 16 19 23
211 222 252 79 135 211 218 256 205 172 250 195 226 237 302 113 291 319 211 159 184 196 121 280 33 334 52 8 10 9 351 345 17 32 39 33 39 38 30 25 35 28 17 16
25 350 239 173 217 220 251 222 148 209 275 170 265 347 242 314 289 282 196 230 184 167 146 280 345 72 23 351 2 356 0 358 345 9 13 25 25 19 31 38 27 37 50 30
201 222 229 204 196 291 252 319 301 308 354 322 278 287 180 202 248 251 261 252 48 135 191 192 278 53 205 315 336 358 356 360 15 352 3 0 20 25 20 23 36 39 44 32
245 231 283 239 206 253 321 331 321 336 298 321 328 279 220 192 220 266 254 45 249 304 52 252 38 53 16 332 320 309 351 354 8 27 23 14 14 22 30 25 18 26 31 44
259 247 250 229 296 290 300 314 289 265 289 296 260 224 251 191 236 229 81 207 261 209 258 8 35 9 322 331 327 320 330 342 20 26 17 30 25 26 30 26 30 34 29 39
245 239 256 243 263 297 285 305 304 7 303 285 235 268 322 246 311 233 82 57 243 14 355 6 6 36 30 13 350 317 316 320 290 39 18 17 38 31 22 32 21 37 34 31
231 235 243 282 299 292 331 321 349 9 297 318 354 295 274 345 347 45 27 14 2 333 359 39 34 346 344 350 349 321 308 288 199 71 46 32 42 33 32 27 20 11 26 27